Location: Aressy
(43.2833°N, 0.3167°W)
Time: 19:09:54
(UTC+00:00)

NOSS 2-2 (E) - Pass Details

Date: 28 January 2021
Orbit: 462 x 1744 km, 63.3° (Epoch: 03 March)

Event Time Altitude Azimuth Distance (km) Brightness Sun altitude
Rises 19:35:31 0° 325° (NW) 3,203 7.7 -26.9°
Reaches altitude 10° 19:37:37 10° 327° (NNW) 2,423 7.0 -27.2°
Maximum altitude 19:43:18 74° 53° (NE) 1,070 4.4 -28.3°
Enters shadow 19:43:33 73° 72° (ENE) 1,084 4.4 -28.3°
